IK8SDA Pozzuoli IT current weather conditions

sailwx.info

Wind from 259 at 1 knots gusting 1

Air temperature 22.2° C
Dewpoint 20.1° C

Last reported at 2019-Sep-16 22:00 UTC.
Time now 2019-Sep-16 22:19 UTC

Location: N 40°50' E 014°08'.
View on Google Maps.

See reports from other nearby stations

  
Tides and Currents Weather Stations Pressure Air Temp Water Temp Dewpoint Dewpoint Depression Visibility Wind Speed Wind Dir Waves Ship Positions
date/time (UTC)wind fromknots sea level pressurealtimeterstation pressurevisibilityair tempwater tempwave heightnotes
2019-Sep-16 22:00 259 1 gusting 1 22.2
2019-Sep-16 21:55 259 1 gusting 2 22.2
2019-Sep-16 21:50 259 1 gusting 2 22.2
2019-Sep-16 21:45 259 2 gusting 2 22.2
2019-Sep-16 21:40 259 1 gusting 2 22.2
2019-Sep-16 21:35 259 22.2
2019-Sep-16 21:30 259 22.2
2019-Sep-16 21:25 259 22.2
2019-Sep-16 21:20 259 0 gusting 1 22.2
2019-Sep-16 21:15 259 1 gusting 1 22.2
2019-Sep-16 21:10 259 0 gusting 2 22.2
2019-Sep-16 21:00 259 1 gusting 2 22.2
2019-Sep-16 20:55 259 2 gusting 2 22.2
2019-Sep-16 20:50 259 0 gusting 2 22.8
2019-Sep-16 20:45 259 0 gusting 2 22.8
2019-Sep-16 20:40 259 1 gusting 2 22.8
2019-Sep-16 20:35 259 2 gusting 2 22.8
2019-Sep-16 20:30 259 2 gusting 2 22.8
2019-Sep-16 20:25 259 1 gusting 2 22.8
2019-Sep-16 20:20 259 1 gusting 2 22.8
2019-Sep-16 20:15 259 2 gusting 2 22.8
2019-Sep-16 20:10 259 1 gusting 2 22.8
2019-Sep-16 20:00 259 1 gusting 2 22.8
2019-Sep-16 19:55 259 2 gusting 2 22.8
2019-Sep-16 19:50 259 2 gusting 2 22.8
2019-Sep-16 19:45 259 1 gusting 2 22.8
2019-Sep-16 19:40 259 1 gusting 2 22.8
2019-Sep-16 19:35 259 0 gusting 2 22.8
2019-Sep-16 19:30 259 0 gusting 1 22.8
2019-Sep-16 19:25 259 0 gusting 2 22.8
2019-Sep-16 19:20 259 1 gusting 2 22.8
2019-Sep-16 19:15 259 2 gusting 2 22.8
2019-Sep-16 19:10 259 0 gusting 2 22.8
2019-Sep-16 18:55 259 22.8
2019-Sep-16 18:50 259 22.8
2019-Sep-16 18:45 259 22.8
2019-Sep-16 18:40 259 22.8
2019-Sep-16 18:35 259 22.8
2019-Sep-16 18:30 259 23.3
2019-Sep-16 18:25 259 23.3
2019-Sep-16 18:20 259 1 gusting 2 23.3
2019-Sep-16 18:15 259 1 gusting 2 23.3
2019-Sep-16 18:00 259 1 gusting 2 23.3
2019-Sep-16 17:55 259 1 gusting 2 23.3
2019-Sep-16 17:50 259 23.3
2019-Sep-16 17:45 259 0 gusting 4 23.3
2019-Sep-16 17:40 259 2 gusting 4 23.3
2019-Sep-16 17:35 259 0 gusting 2 23.3
2019-Sep-16 17:30 259 23.9
2019-Sep-16 17:25 259 1 gusting 4 23.9
2019-Sep-16 17:20 259 2 gusting 4 23.9
2019-Sep-16 17:15 259 2 gusting 4 23.9
2019-Sep-16 17:10 259 1 gusting 4 23.9
2019-Sep-16 17:00 259 2 gusting 4 24.4
2019-Sep-16 16:55 259 24.4
2019-Sep-16 16:50 259 24.4
2019-Sep-16 16:45 259 2 gusting 7 24.4
2019-Sep-16 16:40 233 4 gusting 7 25.0
2019-Sep-16 16:35 251 4 gusting 7 25.0
2019-Sep-16 16:30 257 1 gusting 6 25.0
2019-Sep-16 16:25 271 2 gusting 7 25.0
2019-Sep-16 16:20 262 5 gusting 7 25.0
2019-Sep-16 16:10 242 4 gusting 10 25.0
2019-Sep-16 16:00 253 4 gusting 10 25.0
2019-Sep-16 15:55 260 7 gusting 10 25.6
2019-Sep-16 15:50 258 3 gusting 8 25.6
2019-Sep-16 15:45 248 6 gusting 10 25.6
2019-Sep-16 15:40 244 5 gusting 10 25.6
2019-Sep-16 15:35 229 4 gusting 7 25.6
2019-Sep-16 15:30 206 3 gusting 5 25.6
2019-Sep-16 15:25 239 3 gusting 8 25.6
2019-Sep-16 15:20 238 5 gusting 8 25.6
2019-Sep-16 15:15 219 4 gusting 8 25.6
2019-Sep-16 15:10 223 5 gusting 10 25.0
2019-Sep-16 15:00 227 6 gusting 10 25.0
2019-Sep-16 14:55 225 7 gusting 10 25.0
2019-Sep-16 14:50 218 6 gusting 10 25.6
2019-Sep-16 14:45 221 6 gusting 11 25.0
2019-Sep-16 14:40 224 4 gusting 11 25.6
2019-Sep-16 14:35 239 6 gusting 10 25.6
2019-Sep-16 14:30 240 4 gusting 10 25.6
2019-Sep-16 14:25 253 6 gusting 10 25.0
2019-Sep-16 14:20 236 5 gusting 10 25.0
2019-Sep-16 14:15 228 7 gusting 10 25.0
2019-Sep-16 14:10 230 7 gusting 8 25.6
2019-Sep-16 14:00 241 3 gusting 8 25.6
2019-Sep-16 13:55 222 6 gusting 10 25.6
2019-Sep-16 13:50 224 5 gusting 10 25.0
2019-Sep-16 13:45 249 5 gusting 10 25.0
2019-Sep-16 13:40 221 6 gusting 10 25.0
2019-Sep-16 13:35 210 7 gusting 10 25.0
2019-Sep-16 13:30 223 6 gusting 10 25.6
2019-Sep-16 13:25 241 6 gusting 10 25.6
2019-Sep-16 13:20 246 6 gusting 8 25.6
2019-Sep-16 13:15 229 6 gusting 10 25.6
2019-Sep-16 13:10 215 6 gusting 10 25.6
2019-Sep-16 13:00 224 4 gusting 10 26.1
2019-Sep-16 12:55 228 7 gusting 10 25.6
2019-Sep-16 12:50 223 6 gusting 10 25.6
2019-Sep-16 12:45 234 7 gusting 8 26.1
2019-Sep-16 12:40 232 5 gusting 8 25.6
2019-Sep-16 12:35 224 6 gusting 8 25.6
2019-Sep-16 12:30 227 7 gusting 8 25.6
2019-Sep-16 12:25 227 4 gusting 8 25.6
2019-Sep-16 12:20 198 5 gusting 8 25.0
2019-Sep-16 12:15 209 7 gusting 10 25.0
2019-Sep-16 12:10 234 8 gusting 10 25.0
2019-Sep-16 12:00 180 8 gusting 10 25.6
2019-Sep-16 11:55 176 6 gusting 8 25.0
2019-Sep-16 11:50 191 7 gusting 8 25.0
2019-Sep-16 11:45 182 3 gusting 7 25.6
2019-Sep-16 11:40 196 5 gusting 7 25.0
2019-Sep-16 11:35 194 5 gusting 8 25.0
2019-Sep-16 11:30 201 5 gusting 8 25.0
2019-Sep-16 11:25 191 7 gusting 8 25.0
2019-Sep-16 11:20 192 5 gusting 8 25.0
2019-Sep-16 11:15 195 5 gusting 11 25.0
2019-Sep-16 11:10 175 5 gusting 11 25.0
2019-Sep-16 11:00 212 5 gusting 8 25.6
2019-Sep-16 10:55 203 5 gusting 8 25.6
2019-Sep-16 10:50 218 4 gusting 6 25.6
2019-Sep-16 10:45 209 3 gusting 8 25.0
2019-Sep-16 10:40 196 6 gusting 7 25.0
2019-Sep-16 10:35 193 4 gusting 7 25.0
2019-Sep-16 10:30 211 4 gusting 7 25.0
2019-Sep-16 10:25 207 4 gusting 6 25.0
2019-Sep-16 10:20 204 4 gusting 6 25.0
2019-Sep-16 10:15 202 4 gusting 6 25.0
2019-Sep-16 10:10 198 4 gusting 6 25.0
2019-Sep-16 10:00 200 5 gusting 6 25.6
2019-Sep-16 09:55 198 2 gusting 7 25.6
2019-Sep-16 09:50 192 4 gusting 7 25.0
2019-Sep-16 09:45 209 3 gusting 6 25.0
2019-Sep-16 09:40 216 2 gusting 6 25.0
2019-Sep-16 09:35 216 4 gusting 6 25.0
2019-Sep-16 09:30 219 2 gusting 6 25.0
2019-Sep-16 09:25 220 2 gusting 6 25.0
2019-Sep-16 09:20 220 4 gusting 6 25.0
2019-Sep-16 09:15 221 4 gusting 6 25.0
2019-Sep-16 09:10 226 5 gusting 6 24.4
2019-Sep-16 09:00 232 4 gusting 6 25.0
2019-Sep-16 08:55 249 1 gusting 6 25.0
2019-Sep-16 08:50 234 4 gusting 6 25.0
2019-Sep-16 08:45 211 4 gusting 5 25.0
2019-Sep-16 08:40 205 1 gusting 5 25.0
2019-Sep-16 08:35 205 2 gusting 6 25.0
2019-Sep-16 08:30 206 1 gusting 6 25.0
2019-Sep-16 08:25 190 2 gusting 5 24.4
2019-Sep-16 08:20 190 2 gusting 5 24.4
2019-Sep-16 08:15 186 0 gusting 5 25.0
2019-Sep-16 08:10 185 2 gusting 5 25.0
2019-Sep-16 08:00 192 0 gusting 4 25.0
2019-Sep-16 07:55 192 1 gusting 4 24.4
2019-Sep-16 07:50 192 2 gusting 4 24.4
2019-Sep-16 07:45 183 1 gusting 5 24.4
2019-Sep-16 07:40 182 2 gusting 5 24.4
2019-Sep-16 07:35 346 24.4
2019-Sep-16 07:30 346 0 gusting 2 24.4
2019-Sep-16 07:25 346 2 gusting 4 24.4
2019-Sep-16 07:20 346 0 gusting 4 23.9
2019-Sep-16 07:15 346 3 gusting 4 23.9
2019-Sep-16 07:10 023 1 gusting 4 24.4
2019-Sep-16 07:00 023 0 gusting 1 24.4
2019-Sep-16 06:55 023 24.4
2019-Sep-16 06:50 023 24.4
2019-Sep-16 06:45 023 23.9
2019-Sep-16 06:40 023 23.9
2019-Sep-16 06:35 023 23.9
2019-Sep-16 06:30 023 0 gusting 1 23.9
2019-Sep-16 06:25 023 1 gusting 1 23.9
2019-Sep-16 06:20 023 0 gusting 1 23.9
2019-Sep-16 06:15 023 0 gusting 0 23.9
2019-Sep-16 06:10 023 23.9
2019-Sep-16 06:00 023 23.9
2019-Sep-16 05:55 023 23.3
2019-Sep-16 05:50 023 0 gusting 1 23.3
2019-Sep-16 05:45 023 23.3
2019-Sep-16 05:40 023 22.8
2019-Sep-16 05:35 023 22.8
2019-Sep-16 05:30 023 22.8
2019-Sep-16 05:25 023 22.8
2019-Sep-16 05:20 023 22.8
2019-Sep-16 05:15 023 22.8
2019-Sep-16 05:10 023 0 gusting 1 22.8
2019-Sep-16 05:00 023 1 gusting 1 22.8
2019-Sep-16 04:55 023 1 gusting 2 22.8
2019-Sep-16 04:50 023 1 gusting 2 22.8
2019-Sep-16 04:45 023 0 gusting 2 22.8
2019-Sep-16 04:40 023 1 gusting 2 22.8
2019-Sep-16 04:35 023 22.8
2019-Sep-16 04:30 023 22.8
2019-Sep-16 04:25 023 22.8
2019-Sep-16 04:20 023 22.8
2019-Sep-16 04:15 023 22.8
2019-Sep-16 04:10 023 22.8
2019-Sep-16 04:00 023 22.8
2019-Sep-16 03:55 023 1 gusting 2 22.8
2019-Sep-16 03:50 023 1 gusting 1 22.2
2019-Sep-16 03:45 023 22.8
2019-Sep-16 03:40 023 22.8
2019-Sep-16 03:35 023 0 gusting 1 22.8
2019-Sep-16 03:30 023 0 gusting 1 22.8
2019-Sep-16 03:25 023 0 gusting 1 22.8
2019-Sep-16 03:20 023 1 gusting 1 22.8
2019-Sep-16 03:15 023 1 gusting 2 22.2
2019-Sep-16 03:10 023 2 gusting 2 22.2
2019-Sep-16 03:00 023 2 gusting 2 22.2
2019-Sep-16 02:55 023 2 gusting 2 22.2
2019-Sep-16 02:50 023 2 gusting 2 22.2
2019-Sep-16 02:45 023 2 gusting 2 22.2
2019-Sep-16 02:40 023 0 gusting 1 22.2
2019-Sep-16 02:35 023 22.2
2019-Sep-16 02:30 023 22.2
2019-Sep-16 02:25 023 22.2
2019-Sep-16 02:20 023 22.2
2019-Sep-16 02:15 023 0 gusting 1 22.2
2019-Sep-16 02:10 023 22.2
2019-Sep-16 02:00 023 22.8
2019-Sep-16 01:55 023 22.8
2019-Sep-16 01:50 023 22.8
2019-Sep-16 01:45 023 22.8
2019-Sep-16 01:40 023 22.8
2019-Sep-16 01:35 023 22.8
2019-Sep-16 01:30 023 22.8
2019-Sep-16 01:25 023 0 gusting 1 22.8
2019-Sep-16 01:20 023 22.8
2019-Sep-16 01:15 023 22.8
2019-Sep-16 01:10 023 0 gusting 1 22.8
2019-Sep-16 01:00 023 0 gusting 0 23.3
2019-Sep-16 00:55 023 23.3
2019-Sep-16 00:50 023 23.3
2019-Sep-16 00:45 023 23.3
2019-Sep-16 00:40 023 1 gusting 2 23.3
2019-Sep-16 00:35 023 0 gusting 2 23.3
2019-Sep-16 00:30 023 1 gusting 2 23.3
2019-Sep-16 00:25 023 23.3
2019-Sep-16 00:20 023 23.3
2019-Sep-16 00:15 023 0 gusting 1 23.3
2019-Sep-16 00:10 023 0 gusting 2 23.3
2019-Sep-16 00:00 023 2 gusting 2 23.9
2019-Sep-15 23:55 023 1 gusting 2 23.9
2019-Sep-15 23:50 023 1 gusting 1 23.3
2019-Sep-15 23:45 023 0 gusting 1 23.3
2019-Sep-15 23:40 023 23.3
2019-Sep-15 23:35 023 23.3
2019-Sep-15 23:30 023 2 gusting 2 23.9
2019-Sep-15 23:25 023 1 gusting 2 23.9
2019-Sep-15 23:20 023 1 gusting 2 23.3
2019-Sep-15 23:15 023 1 gusting 2 23.3
2019-Sep-15 23:10 023 1 gusting 1 23.3
2019-Sep-15 23:00 023 1 gusting 1 23.3
2019-Sep-15 22:55 023 1 gusting 1 23.9
2019-Sep-15 22:50 023 1 gusting 1 23.9
2019-Sep-15 22:45 023 23.9
2019-Sep-15 22:40 023 23.9
2019-Sep-15 22:35 023 23.9
2019-Sep-15 22:30 023 0 gusting 1 23.9
2019-Sep-15 22:25 023 0 gusting 2 23.9
2019-Sep-15 22:20 023 1 gusting 2 24.4
2019-Sep-15 22:15 023 2 gusting 2 24.4
2019-Sep-15 22:10 023 1 gusting 2 23.9
2019-Sep-15 22:00 023 2 gusting 2 23.3
2019-Sep-15 21:55 023 2 gusting 2 23.3
2019-Sep-15 21:50 023 2 gusting 2 23.9
2019-Sep-15 21:45 023 2 gusting 4 23.9
2019-Sep-15 21:40 023 2 gusting 4 23.9
2019-Sep-15 21:35 023 3 gusting 4 23.9
2019-Sep-15 21:30 023 2 gusting 4 23.3
2019-Sep-15 21:25 023 2 gusting 4 23.3
2019-Sep-15 21:20 023 2 gusting 2 23.3
2019-Sep-15 21:15 023 0 gusting 2 23.3
2019-Sep-15 21:10 023 1 gusting 4 23.9
2019-Sep-15 21:00 023 1 gusting 4 23.9
2019-Sep-15 20:55 023 2 gusting 4 23.9
2019-Sep-15 20:50 023 2 gusting 2 23.9
2019-Sep-15 20:45 023 1 gusting 4 23.9
2019-Sep-15 20:40 023 3 gusting 4 23.9
2019-Sep-15 20:35 023 2 gusting 4 23.9
2019-Sep-15 20:30 023 2 gusting 4 23.9
2019-Sep-15 20:25 023 4 gusting 4 23.3
2019-Sep-15 20:20 023 2 gusting 4 23.3
2019-Sep-15 20:15 023 3 gusting 4 23.3
2019-Sep-15 20:10 023 2 gusting 4 22.8
2019-Sep-15 20:00 023 1 gusting 4 23.3
2019-Sep-15 19:55 023 2 gusting 5 23.9
2019-Sep-15 19:50 023 4 gusting 5 23.9
2019-Sep-15 19:45 023 4 gusting 5 23.9
2019-Sep-15 19:40 023 4 gusting 5 23.3
2019-Sep-15 19:35 023 2 gusting 5 23.3
2019-Sep-15 19:30 023 3 gusting 4 23.3
2019-Sep-15 19:25 023 2 gusting 5 23.3
2019-Sep-15 19:20 023 3 gusting 5 23.3
2019-Sep-15 19:15 023 4 gusting 5 23.9
2019-Sep-15 19:10 023 2 gusting 5 23.9
2019-Sep-15 19:00 023 4 gusting 5 23.9
2019-Sep-15 18:55 022 2 gusting 4 23.3
2019-Sep-15 18:50 019 4 gusting 4 23.3
2019-Sep-15 18:45 015 2 gusting 4 23.3
2019-Sep-15 18:40 307 2 gusting 4 23.9
2019-Sep-15 18:35 307 2 gusting 4 23.9
2019-Sep-15 18:30 307 0 gusting 2 23.9
2019-Sep-15 18:25 307 2 gusting 4 23.9
2019-Sep-15 18:20 307 1 gusting 4 23.9
2019-Sep-15 18:15 307 1 gusting 4 23.9
2019-Sep-15 18:10 307 2 gusting 4 23.9
2019-Sep-15 18:00 307 2 gusting 2 23.9
2019-Sep-15 17:55 307 1 gusting 2 23.9
2019-Sep-15 17:50 307 23.9
2019-Sep-15 17:45 307 0 gusting 4 24.4
2019-Sep-15 17:40 307 1 gusting 4 24.4
2019-Sep-15 17:35 307 2 gusting 4 24.4
2019-Sep-15 17:30 307 2 gusting 4 24.4
2019-Sep-15 17:25 307 1 gusting 4 24.4
2019-Sep-15 17:20 306 24.4
2019-Sep-15 17:15 306 1 gusting 2 24.4
2019-Sep-15 17:10 306 1 gusting 6 24.4
2019-Sep-15 17:00 306 2 gusting 6 25.0
2019-Sep-15 16:55 306 3 gusting 6 25.0
2019-Sep-15 16:50 307 2 gusting 6 25.6
2019-Sep-15 16:45 309 4 gusting 7 25.6
2019-Sep-15 16:40 328 2 gusting 7 25.6
2019-Sep-15 16:35 294 4 gusting 7 25.6
2019-Sep-15 16:30 297 4 gusting 7 25.6
2019-Sep-15 16:25 298 4 gusting 7 26.1
2019-Sep-15 16:20 301 5 gusting 7 26.1
2019-Sep-15 16:15 282 5 gusting 7 26.7
2019-Sep-15 16:10 292 2 gusting 7 26.1
2019-Sep-15 16:00 291 4 gusting 6 26.7
2019-Sep-15 15:55 288 1 gusting 6 26.7
2019-Sep-15 15:50 298 1 gusting 5 27.2
2019-Sep-15 15:45 320 4 gusting 5 27.2
2019-Sep-15 15:40 249 1 gusting 5 27.2
2019-Sep-15 15:35 242 1 gusting 6 27.2
2019-Sep-15 15:30 249 5 gusting 6 26.7
2019-Sep-15 15:25 247 3 gusting 7 26.7
2019-Sep-15 15:20 245 4 gusting 7 27.2
2019-Sep-15 15:15 262 6 gusting 7 27.2
2019-Sep-15 15:10 244 4 gusting 10 27.2
2019-Sep-15 15:00 250 5 gusting 10 27.2
2019-Sep-15 14:55 244 6 gusting 10 27.2
2019-Sep-15 14:50 256 6 gusting 6 27.8
2019-Sep-15 14:45 215 4 gusting 6 27.8
2019-Sep-15 14:40 233 3 gusting 6 27.8
2019-Sep-15 14:35 244 5 gusting 6 27.8
2019-Sep-15 14:30 242 2 gusting 6 27.8
2019-Sep-15 14:25 238 4 gusting 7 27.2
2019-Sep-15 14:20 241 3 gusting 7 27.2
2019-Sep-15 14:15 222 4 gusting 7 27.2
2019-Sep-15 14:10 217 4 gusting 10 27.2
2019-Sep-15 14:00 213 6 gusting 10 26.7
2019-Sep-15 13:55 237 7 gusting 10 26.7
2019-Sep-15 13:50 216 6 gusting 10 26.7
2019-Sep-15 13:45 235 6 gusting 10 27.2
2019-Sep-15 13:40 266 5 gusting 7 27.2
2019-Sep-15 13:35 206 4 gusting 10 27.2
2019-Sep-15 13:30 235 7 gusting 10 27.2
2019-Sep-15 13:25 227 5 gusting 10 27.2
2019-Sep-15 13:20 229 7 gusting 10 26.7
2019-Sep-15 13:15 255 4 gusting 7 26.7
2019-Sep-15 13:10 238 4 gusting 7 27.2
2019-Sep-15 13:00 253 5 gusting 7 27.8
2019-Sep-15 12:55 264 3 gusting 8 27.2
2019-Sep-15 12:50 271 6 gusting 8 27.2
2019-Sep-15 12:45 230 3 gusting 8 27.2
2019-Sep-15 12:40 256 6 gusting 8 27.2
2019-Sep-15 12:35 249 5 gusting 8 27.2
2019-Sep-15 12:30 270 4 gusting 8 27.2
2019-Sep-15 12:25 230 4 gusting 8 27.2
2019-Sep-15 12:20 251 4 gusting 8 27.2
2019-Sep-15 12:15 225 5 gusting 8 26.7
2019-Sep-15 12:10 233 4 gusting 8 27.2
2019-Sep-15 12:00 230 6 gusting 8 26.7
2019-Sep-15 11:55 249 4 gusting 7 27.2
2019-Sep-15 11:50 263 4 gusting 7 27.2
2019-Sep-15 11:45 219 5 gusting 8 26.7
2019-Sep-15 11:40 230 5 gusting 8 26.7
2019-Sep-15 11:35 247 6 gusting 8 26.7
2019-Sep-15 11:30 243 5 gusting 8 27.2
2019-Sep-15 11:25 234 6 gusting 8 27.2
2019-Sep-15 11:20 232 6 gusting 6 27.2
2019-Sep-15 11:15 225 4 gusting 6 27.2
2019-Sep-15 11:10 238 2 gusting 8 27.2
2019-Sep-15 11:00 237 5 gusting 8 27.2
2019-Sep-15 10:55 260 5 gusting 7 27.2
2019-Sep-15 10:50 253 4 gusting 7 26.7
2019-Sep-15 10:45 245 6 gusting 6 26.7
2019-Sep-15 10:40 265 5 gusting 6 26.7
2019-Sep-15 10:35 257 4 gusting 6 27.2
2019-Sep-15 10:30 277 4 gusting 6 26.7
2019-Sep-15 10:25 247 4 gusting 6 26.7
2019-Sep-15 10:20 258 1 gusting 6 26.7
2019-Sep-15 10:15 248 2 gusting 6 26.7
2019-Sep-15 10:10 251 4 gusting 6 26.1
2019-Sep-15 10:00 263 3 gusting 5 26.7
2019-Sep-15 09:55 229 2 gusting 6 26.1
2019-Sep-15 09:50 229 4 gusting 6 26.1
2019-Sep-15 09:45 230 2 gusting 6 26.1
2019-Sep-15 09:40 211 2 gusting 6 26.1
2019-Sep-15 09:35 213 3 gusting 6 26.1
2019-Sep-15 09:30 213 1 gusting 6 26.1
2019-Sep-15 09:25 215 5 gusting 6 25.6
2019-Sep-15 09:20 223 4 gusting 5 25.6
2019-Sep-15 09:15 227 3 gusting 5 26.1
2019-Sep-15 09:10 228 2 gusting 6 26.1
2019-Sep-15 09:00 241 4 gusting 4 26.1
2019-Sep-15 08:55 241 2 gusting 5 26.1
2019-Sep-15 08:50 243 1 gusting 5 25.6
2019-Sep-15 08:45 243 4 gusting 5 25.6
2019-Sep-15 08:40 243 2 gusting 5 25.6
2019-Sep-15 08:35 242 2 gusting 6 25.6
2019-Sep-15 08:30 242 2 gusting 5 25.6
2019-Sep-15 08:25 237 2 gusting 5 25.6
2019-Sep-15 08:20 237 2 gusting 4 25.0
2019-Sep-15 08:15 237 3 gusting 5 25.0
2019-Sep-15 08:10 221 4 gusting 5 25.0
2019-Sep-15 08:00 068 3 gusting 4 25.0
2019-Sep-15 07:55 061 0 gusting 2 25.0
2019-Sep-15 07:50 061 1 gusting 2 25.0
2019-Sep-15 07:45 061 2 gusting 2 25.0
2019-Sep-15 07:40 061 0 gusting 2 25.0
2019-Sep-15 07:35 061 1 gusting 2 25.0
2019-Sep-15 07:30 061 1 gusting 2 25.6
2019-Sep-15 07:25 061 1 gusting 2 25.6
2019-Sep-15 07:20 061 25.6
2019-Sep-15 07:15 061 25.6
2019-Sep-15 07:10 061 25.0
2019-Sep-15 07:00 061 25.0
2019-Sep-15 06:55 061 24.4
2019-Sep-15 06:50 061 23.9
2019-Sep-15 06:45 061 23.9
2019-Sep-15 06:40 061 23.9
2019-Sep-15 06:35 061 0 gusting 1 23.3
2019-Sep-15 06:30 061 23.9
2019-Sep-15 06:25 061 23.9
2019-Sep-15 06:20 061 23.9
2019-Sep-15 06:15 061 23.9
2019-Sep-15 06:10 061 23.9
2019-Sep-15 06:00 061 23.3
2019-Sep-15 05:55 061 23.3
2019-Sep-15 05:50 061 23.3
2019-Sep-15 05:45 061 23.3
2019-Sep-15 05:40 061 22.8
2019-Sep-15 05:35 061 22.8
2019-Sep-15 05:30 061 22.2
2019-Sep-15 05:25 061 1 gusting 2 22.2
2019-Sep-15 05:20 061 1 gusting 2 22.2
2019-Sep-15 05:15 061 1 gusting 2 22.2
2019-Sep-15 05:10 061 22.2
2019-Sep-15 05:00 061 0 gusting 2 22.2
2019-Sep-15 04:55 061 0 gusting 4 22.8
2019-Sep-15 04:50 061 0 gusting 4 22.8
2019-Sep-15 04:45 061 1 gusting 6 22.8
2019-Sep-15 04:40 061 2 gusting 6 22.8
2019-Sep-15 04:35 061 2 gusting 8 22.8
2019-Sep-15 04:30 061 5 gusting 8 22.8
2019-Sep-15 04:25 057 4 gusting 8 22.8
2019-Sep-15 04:20 053 3 gusting 8 22.8
2019-Sep-15 04:15 053 5 gusting 8 22.8
2019-Sep-15 04:10 051 5 gusting 10 22.8
2019-Sep-15 04:00 043 6 gusting 10 22.8
2019-Sep-15 03:55 051 5 gusting 10 22.8
2019-Sep-15 03:50 055 3 gusting 7 22.8
2019-Sep-15 03:45 055 5 gusting 10 22.8
2019-Sep-15 03:40 059 5 gusting 10 22.2
2019-Sep-15 03:35 066 6 gusting 10 22.2
2019-Sep-15 03:30 060 6 gusting 10 22.2
2019-Sep-15 03:25 069 8 gusting 11 22.2
2019-Sep-15 03:20 037 6 gusting 10 22.2
2019-Sep-15 03:15 045 6 gusting 10 22.2
2019-Sep-15 03:10 050 5 gusting 10 22.2
2019-Sep-15 03:00 046 5 gusting 5 22.2
2019-Sep-15 02:55 044 4 gusting 5 22.2
2019-Sep-15 02:50 044 2 gusting 5 22.2
2019-Sep-15 02:45 042 3 gusting 7 22.2
2019-Sep-15 02:40 042 4 gusting 7 22.2
2019-Sep-15 02:35 042 5 gusting 7 22.8
2019-Sep-15 02:30 041 6 gusting 6 22.2
2019-Sep-15 02:25 040 6 gusting 10 21.7
2019-Sep-15 02:20 038 4 gusting 10 21.1
2019-Sep-15 02:15 039 6 gusting 7 21.1
2019-Sep-15 02:10 047 4 gusting 7 21.7
2019-Sep-15 02:00 050 2 gusting 6 21.7
2019-Sep-15 01:55 050 4 gusting 6 21.7
2019-Sep-15 01:50 050 4 gusting 5 21.7
2019-Sep-15 01:45 050 2 gusting 6 21.7
2019-Sep-15 01:40 050 3 gusting 6 22.2
2019-Sep-15 01:35 050 2 gusting 6 22.8
2019-Sep-15 01:30 052 2 gusting 6 23.3
2019-Sep-15 01:25 053 2 gusting 6 23.3
2019-Sep-15 01:20 055 5 gusting 6 23.3
2019-Sep-15 01:15 055 2 gusting 6 23.3
2019-Sep-15 01:10 055 3 gusting 5 23.3
2019-Sep-15 01:00 055 1 gusting 5 23.3
2019-Sep-15 00:55 055 0 gusting 4 23.3
2019-Sep-15 00:50 055 2 gusting 4 23.3
2019-Sep-15 00:45 055 2 gusting 5 23.3
2019-Sep-15 00:40 055 3 gusting 5 23.3
2019-Sep-15 00:35 055 4 gusting 7 23.3
2019-Sep-15 00:30 057 5 gusting 7 23.3
2019-Sep-15 00:25 058 6 gusting 7 23.3
2019-Sep-15 00:20 053 5 gusting 7 23.3
2019-Sep-15 00:15 046 5 gusting 7 23.3
2019-Sep-15 00:10 042 5 gusting 7 23.9
2019-Sep-15 00:00 045 6 gusting 7 24.4
2019-Sep-14 23:55 068 6 gusting 10 24.4
2019-Sep-14 23:50 072 8 gusting 10 24.4
2019-Sep-14 23:45 037 2 gusting 11 24.4
2019-Sep-14 23:40 025 5 gusting 11 24.4
2019-Sep-14 23:35 043 4 gusting 13 24.4
2019-Sep-14 23:30 075 6 gusting 13 24.4
2019-Sep-14 23:25 053 8 gusting 13 24.4
2019-Sep-14 23:20 074 6 gusting 10 24.4
2019-Sep-14 23:15 050 5 gusting 10 24.4
2019-Sep-14 23:10 037 4 gusting 10 24.4
2019-Sep-14 23:00 038 4 gusting 7 23.9
2019-Sep-14 22:55 042 4 gusting 6 23.9
2019-Sep-14 22:50 042 3 gusting 6 23.9
2019-Sep-14 22:45 042 3 gusting 7 23.9
2019-Sep-14 22:40 041 5 gusting 7 23.9
2019-Sep-14 22:35 042 5 gusting 8 23.9
2019-Sep-14 22:30 043 6 gusting 8 23.9
2019-Sep-14 22:25 040 5 gusting 11 24.4
2019-Sep-14 22:20 057 8 gusting 11 24.4
2019-Sep-14 22:15 054 5 gusting 7 24.4
2019-Sep-14 22:10 063 6 gusting 6 23.9
2019-Sep-14 22:00 068 5 gusting 6 24.4